Location: R�o Medio
(42.4667°N, 3.0167°W)
Time: 07:40:53
(UTC+00:00)

SJ-11-01 - Pass Details

Date: 27 February 2020
Orbit: 685 x 700 km, 98.0° (Epoch: 30 March)

Event Time Altitude Azimuth Distance (km) Brightness Sun altitude
Rises 19:33:57 0° 168° (SSE) 3,042 7.4 -18.3°
Reaches altitude 10° 19:36:11 10° 169° (SSE) 2,128 6.6 -18.7°
Maximum altitude 19:40:51 82° 256° (WSW) 698 4.3 -19.6°
Drops below altitude 10° 19:45:33 10° 345° (NNW) 2,140 7.1 -20.5°
Sets 19:47:48 0° 347° (NNW) 3,060 7.9 -20.9°
